#timestamp,LO_Frequency,Hit,StdDev 
1634018415.5,286046997.7,N
1634018435.3,286046996.9,N
1634018455.2,286046999.1,N
1634018475.0,286046998.9,N
1634018475.9,286046998.9,N
1634018495.8,286046999.2,N
1634018515.6,286046996.9,Y
1634018535.4,286047001.1,P
1634018555.3,286046998.7,N
1634018575.1,286046997.4,N
1634018595.9,286046997.0,N
1634018615.7,286046997.1,N
1634018635.5,286046997.0,N
1634018655.4,286046996.5,N
1634018675.2,286046998.3,N
1634018695.1,286047001.1,N
1634018696.0,286047001.1,N
1634018715.8,286046999.0,N
1634018735.6,286046998.8,N
1634018755.5,286047001.1,N
1634018775.3,286047000.9,N
1634018795.1,286046999.8,N
1634018815.9,286047002.2,N
1634018835.7,286047002.3,N
1634018855.6,286047002.7,N
1634018875.4,286046999.9,N
1634018895.2,286046999.9,N
1634018915.1,286046999.9,N
1634018916.0,286046999.9,N
1634018935.8,286046999.8,N
1634018955.7,286046999.7,N
1634018975.5,286047002.2,N
1634018995.3,286047002.1,N
1634019015.2,286046999.7,N
1634019035.0,286047002.8,N
1634019035.9,286047002.8,N
1634019055.8,286047000.7,N
1634019075.6,286046998.5,N
1634019095.4,286047001.0,N
1634019115.3,286046999.7,N
1634019135.1,286047002.8,N
1634019155.9,286047000.0,N
1634019175.7,286046999.9,N
1634019195.5,286047011.9,Y
1634019215.4,286046999.3,P
1634019235.2,286046996.9,P
1634019255.1,286046997.8,N
1634019256.0,286046997.8,N
1634019275.8,286046997.7,N
1634019295.7,286046995.0,Y
1634019315.5,286046999.4,P
1634019335.3,286046998.6,N
1634019355.2,286046998.5,P
1634019375.0,286046998.2,Y
1634019375.9,286046998.2,P
1634019395.8,286047000.1,N
1634019415.6,286047000.4,N
1634019435.4,286047000.2,N
1634019455.3,286047001.8,N
1634019475.1,286047004.3,Y
1634019495.9,286047003.2,P
1634019515.7,286047004.1,N
1634019535.5,286047004.3,N
1634019555.4,286047004.0,N
1634019575.2,286047001.3,N
1634019595.1,286047002.1,N
1634019596.0,286047002.1,N
1634019615.8,286047002.3,N
1634019635.6,286047002.8,N
1634019655.5,286047001.6,N
1634019675.3,286047001.7,N
1634019695.2,286047003.5,N
1634019715.0,286047002.9,N
1634019715.9,286047002.9,N
1634019735.8,286047003.9,Y
1634019755.6,286047004.4,P
1634019775.4,286047002.5,N
1634019795.3,286047001.8,N
1634019815.1,286047004.0,Y
1634019835.8,286047000.7,P
1634019855.7,286047000.0,N
1634019875.5,286046998.8,N
1634019895.4,286047000.8,N
1634019915.2,286047002.2,N
1634019935.0,286047000.1,N
1634019935.9,286047000.1,N
1634019955.8,286046998.5,N
1634019975.6,286047000.7,N
1634019995.5,286047000.0,N
1634020015.3,286046998.2,N
1634020035.1,286046998.7,N
1634020055.9,286046999.2,N
1634020075.7,286046999.2,N
1634020095.5,286046996.7,N
1634020115.4,286046999.0,N
1634020135.2,286046999.4,N
1634020155.1,286046998.1,N
1634020156.0,286046998.1,N
1634020175.8,286047000.7,N
1634020195.6,286046998.4,N
1634020215.5,286046998.6,N
1634020235.3,286046998.7,N
1634020255.1,286046998.5,N
1634020275.9,286046999.4,N
1634020295.7,286046997.1,N
1634020315.6,286046996.5,N
1634020335.4,286046999.0,N
1634020355.2,286047000.1,N
1634020375.1,286047001.7,N
1634020376.0,286047001.7,N
1634020395.8,286047005.5,Y
1634020415.6,286047007.5,P
1634020435.5,286047006.8,N
1634020455.3,286047004.6,N
1634020475.2,286047006.8,N
1634020495.0,286047004.5,N
1634020495.9,286047004.5,N
1634020515.7,286047006.9,N
1634020535.6,286047006.3,N
1634020555.4,286047008.3,Y
1634020575.3,286047003.7,P
1634020595.1,286047005.6,P
1634020615.9,286047003.0,P
1634020635.7,286047003.7,Y
1634020655.5,286046998.2,P
1634020675.4,286046998.1,N
1634020695.2,286046999.3,N
1634020715.0,286046999.1,N
1634020716.0,286046999.1,N
1634020735.8,286046997.7,N
1634020755.6,286046998.0,N
1634020775.5,286046995.6,N
1634020795.3,286046993.5,N
1634020815.2,286046994.7,N
1634020835.9,286046991.9,N
1634020855.7,286046992.3,N
1634020875.6,286046994.4,N
1634020895.4,286046995.6,N
1634020915.2,286046993.3,N
1634020935.1,286046994.1,N
1634020936.0,286046994.1,N
1634020955.8,286046994.5,N
1634020975.7,286046993.7,N
1634020995.5,286046993.4,N
1634021015.3,286046993.9,N
1634021035.2,286046991.9,N
1634021055.0,286046992.6,N
1634021055.9,286046992.6,N
1634021075.8,286046992.4,N
1634021095.6,286046992.6,N
1634021115.4,286046992.9,N
1634021135.3,286046992.1,N
1634021155.1,286046992.6,N
1634021175.8,286046993.0,N
1634021195.7,286046991.6,Y
1634021215.5,286046996.3,P
1634021235.4,286046993.4,P
1634021255.2,286046996.2,P
1634021275.0,286046993.3,Y
1634021275.9,286046993.3,P
1634021295.8,286047001.1,N
1634021315.6,286047000.4,N
1634021335.5,286047002.8,N
1634021355.3,286047002.2,N
1634021375.1,286047003.6,N
1634021395.9,286047001.9,N
1634021415.7,286047001.9,N
1634021435.5,286047000.1,N
1634021455.4,286046998.3,N
1634021475.2,286046998.5,N
1634021495.1,286046999.0,N
1634021496.0,286046999.0,N
1634021515.8,286046996.8,N
1634021535.6,286046999.5,N
1634021555.5,286046999.3,N
1634021575.3,286047000.7,N
1634021595.1,286046999.9,N
1634021615.9,286047002.3,N
1634021635.7,286047002.8,N
1634021655.6,286047000.1,N
1634021675.4,286047000.1,N
1634021695.2,286047000.6,N
1634021715.1,286046999.9,N
1634021746.0,286047001.4,E
1634021755.0,286047001.5,N
1634021755.9,286047001.5,P
1634021775.8,286047002.0,P
1634021795.6,286047003.7,Y
1634021815.4,286047001.3,P
1634021835.3,286047003.7,P
1634021855.1,286047003.5,P
1634021875.9,286047004.3,Y
1634021895.7,286046999.0,P
1634021915.5,286046998.8,N
1634021935.4,286046996.9,N
1634021955.2,286046997.7,N
1634021975.1,286046996.2,N
1634021976.0,286046996.2,N
1634021995.8,286046996.0,N
